DELTA 1 DEB, 10251

Orbit data source: Space-Track

DELTA 1 DEB, 10251 is space debris in LEO originally from a launch on Thu, 14 Jul 1977 UTC launched from the Air Force Eastern Test Range (AFETR). Debris objects in space refer to the collection of defunct objects orbiting the Earth. Examples of debris include non-operational satellites, rocket bodies, and fragments generated from explosions, collisions, or faulty payload assembly.

Loading next visibility...
Identifier
10251, 1977-065CC
Orbit
LEO
Country
Flag of USUS
Related business
Manufacturer
Unknown
Mission
Spacecraft
Bus & Motor
Unknown
Mass
Unknown
Launch date (UTC)
1977-07-14 (49 years ago)
Launch vehicle
Unknown
Launch site
Air Force Eastern Test Range (AFETR)
Object type
Payload
Rocket body
Debris
Shape & HBR
Unknown shape, 0.1 m
Radar Cross Section
Medium (>0.1 m² and <1 m²)

Expand to show TLE details & history
Last TLE update: 2 days ago

TLE from 2 days ago
0 DELTA 1 DEB
1 10251U 77065CC  26171.04833199  .00001047  00000-0  12596-3 0  9996
2 10251  28.9687 164.1134 0667354 124.9257 241.5860 13.85559925417664
Epoch: 2026-06-20T01:09Z
TLE epoch observation values (Epoch: 2026-06-20T01:09:35.883Z)
Latitude
-0.00005°
Longitude
-121.55475°
Altitude
1,199.12 km
Speed
7.129 km/s
True Right ascension
10h 56m 27s
True Declination
0° 00' 00"
Sunlit
Object was in daylight at epoch
Visualization orbit readout
Latitude
Unknown
Longitude
Unknown
Altitude
Unknown
Speed
Unknown
Apparent Right ascension
Unknown
Apparent Declination
Unknown
Sunlit
N/A
Visualization observer readout
Local Sidereal Time
23:26:56
Azimuth
Unknown
Elevation
Unknown
Doppler factor
Unknown
Orbital elements
Apogee altitude
1,437.086 km
Perigee altitude
459.239 km
Semi-major axis
7,326.3 km
Eccentricity
0.06674
Inclination
28.9687°
RAAN
164.1134°
Arg. of periapsis
124.9257°
True anomaly
235.13071°
Mean anomaly
241.586°
Eccentric anomaly
238.33168°
Mean motion
3.46112 °/min
Orbital period
104.01 mins
BSTAR
0.00012596
Loading maneuver chart data...
Computing Atmospheric mass density...

Documentation

Showing up to 5 results
|